Weather Roundup
Issued by NWS

Home | Current Version | Previous Version | Text Only | Print | Product List | Glossary On
Versions: 1 2 3 4 5 6 7 8 9 10 11 12 13 14 15 16 17 18 19 20 21 22 23 24 25 26 27 28 29 30 31 32 33 34 35 36 37 38 39 40 41 42 43 44 45 46 47 48 49 50
936
NZUS93 KARX 111110
HRRWXR

CURRENT HOURLY OBSERVATIONS ACROSS
MUCH OF THE UPPER MISSISSIPPI VALLEY
NATIONAL WEATHER SERVICE LA CROSSE WI
500 AM CST THU FEB 11 2016


...SOUTHEAST MINNESOTA...


CITY           SKY/WX    TMP DP  RH WIND       PRES   REMARKS
ROCHESTER      CLOUDY     2  -5  72 NW6       30.25R WCI  -9
ROCHESTER/MAYO FAIR       3  -3  75 NW3       30.28R
WINONA         CLOUDY     0  -4  85 CALM      30.32S
AUSTIN         PTCLDY    -2  -6  84 CALM      30.27R
ALBERT LEA       N/A     -2  -8  78 CALM      30.27R
DODGE CENTER   PTCLDY    -6 -11  77 CALM      30.25R
PRESTON        CLOUDY     0  -6  75 NW6       30.26R WCI -11
OWATONNA       PTCLDY     0  -6  78 CALM      30.27R
FARIBAULT        N/A     -8 -11  84 CALM      30.28S
$$

...ELSEWHERE IN MINNESOTA...


CITY           SKY/WX    TMP DP  RH WIND       PRES   REMARKS
MINNEAPOLIS    CLOUDY     3  -4  72 N3        30.31R
INTNL FALLS    CLOUDY   -10 -15  78 SW3       30.24R
DULUTH         CLOUDY   -10 -15  78 NW7       30.20F WCI -25
RED WING       CLOUDY    -6 -11  77 CALM      30.31R
REDWOOD FALLS  PTCLDY     5   0  79 CALM      30.30R
MANKATO        PTCLDY     1  -2  85 CALM      30.29R
WORTHINGTON    CLOUDY     9   3  78 CALM      30.26R
FAIRMONT       CLOUDY     0  -6  78 N3        30.27R
$$

...SOUTHWEST WISCONSIN...


CITY           SKY/WX    TMP DP  RH WIND       PRES   REMARKS
LA CROSSE      PTCLDY    -3  -8  79 N3        30.31R
PRAIRIE DU CHI PTCLDY     1  -5  76 CALM      30.31R
BOSCOBEL       PTCLDY    -4  -9  79 CALM      30.31R
LONE ROCK      PTCLDY    -4  -9  79 W3        30.29R
PLATTEVILLE    CLOUDY     3  -3  74 NW3       30.26R
FORT MC COY    PTCLDY   -14 -18  79 CALM      30.29R
CAMP DOUGLAS   PTCLDY    -9  -9  97 NW2       30.26R
VIROQUA        FAIR      -1  -5  82 NW3       30.23R
WIS DELLS      PTCLDY    -4  -8  84 CALM      30.25R
$$

...ELSEWHERE IN WISCONSIN...


CITY           SKY/WX    TMP DP  RH WIND       PRES   REMARKS
MILWAUKEE      CLEAR      6  -4  63 NW9       30.22R WCI  -8
MADISON        CLEAR      2  -5  72 NW5       30.25R WCI  -8
GREEN BAY      CLEAR     -2  -7  79 W8        30.22R WCI -17
EAU CLAIRE     PTCLDY    -7 -13  75 CALM      30.28R
BLACK RVR FLS  FAIR     -15 -22  73 CALM      30.28S
MEDFORD        CLOUDY   -10 -13  84 CALM      30.19R
WAUSAU         CLEAR     -2  -7  79 NW6       30.20R WCI -14
WIS RAPIDS     CLOUDY    -4 -10  75 NW5       30.26R WCI -15
MARSHFIELD     CLOUDY    -5 -11  75 W3        30.21R
RICE LAKE      PTCLDY   -11 -16  79 CALM      30.29R
$$

...NORTHEAST IOWA...


CITY           SKY/WX    TMP DP  RH WIND       PRES   REMARKS
WATERLOO       CLOUDY     0  -5  79 NW6       30.29R WCI -12
DUBUQUE        CLEAR      5  -2  72 N6        30.26R WCI  -6
DECORAH        CLOUDY     1  -4  78 CALM      30.26R
MASON CITY     PTCLDY    -2  -7  79 CALM      30.29R
CHARLES CITY   PTCLDY    -2  -9  71 N6        30.29R WCI -14
OELWEIN        PTCLDY     1  -6  71 N8        30.27R WCI -12
$$

...ELSEWHERE IN IOWA...


CITY           SKY/WX    TMP DP  RH WIND       PRES   REMARKS
DES MOINES     CLOUDY     8  -2  63 NE7       30.29R WCI  -3
IOWA CITY      CLOUDY     9   1  70 N7        30.30R WCI  -2
FORT DODGE     CLOUDY     5  -4  66 NE5       30.29R WCI  -4
MARSHALLTOWN   CLOUDY     2  -4  76 N8        30.28R WCI -12
CEDAR RAPIDS   CLOUDY     5   0  79 N6        30.26R WCI  -6
$$

...NORTHERN ILLINOIS...


CITY           SKY/WX    TMP DP  RH WIND       PRES   REMARKS
CHICAGO-OHARE  CLEAR      8  -2  63 N12       30.23R WCI  -7
CHICAGO-MIDWAY CLEAR     11  -2  56 NW9       30.24R WCI  -2
MOLINE         CLOUDY    11   2  67 CALM      30.29R
ROCKFORD       CLEAR      7  -1  70 N8        30.27R WCI  -6
PEORIA         CLEAR     10   3  73 N3        30.28R
$$

NOTE: "FAIR" INDICATES FEW OR NO CLOUDS BELOW 12,000 FEET WITH NO
SIGNIFICANT WEATHER AND/OR OBSTRUCTIONS TO VISIBILITY. WIND
SPEEDS ARE IN MILES-PER-HOUR.




USA.gov is the U.S. government's official web portal to all federal, state and local government web resources and services.